Location: Maxwell Point
(34.0860°N, 81.2952°W)
Time: 21:24:34
(UTC-04:00)

Hubble Space Telescope - Visible Passes

Search period start: 23 March 2019 00:00
Search period end: 02 April 2019 00:00
Orbit: 537 x 540 km, 28.5° (Epoch: 22 March)

Date Brightness Start Highest point End Pass type
(mag) Time Alt. Az. Time Alt. Az. Time Alt. Az.
23 Mar 2.6 21:10:49 10° SSW 21:13:02 19° S 21:13:02 19° S visible
24 Mar 2.1 21:00:01 10° SW 21:03:19 23° SSE 21:03:28 23° SSE visible
25 Mar 2.0 20:49:16 10° SW 20:52:46 26° SSE 20:53:49 24° SE visible
26 Mar 1.9 20:38:36 10° SW 20:42:13 30° S 20:44:06 20° SE visible
26 Mar 3.7 22:19:14 10° WSW 22:19:27 11° WSW 22:19:27 11° WSW visible
27 Mar 1.8 20:27:58 10° SW 20:31:40 33° S 20:34:20 16° ESE visible
27 Mar 3.3 22:08:44 10° WSW 22:09:41 16° WSW 22:09:41 16° WSW visible
28 Mar 1.7 20:17:22 10° WSW 20:21:09 35° S 20:24:32 12° ESE visible
28 Mar 2.9 21:58:15 10° WSW 21:59:53 20° WSW 21:59:53 20° WSW visible
29 Mar 1.7 20:06:48 10° WSW 20:10:37 37° S 20:14:26 10° ESE visible
29 Mar 2.5 21:47:47 10° WSW 21:50:02 25° SW 21:50:02 25° SW visible
30 Mar 2.3 21:37:21 10° WSW 21:40:11 27° SSW 21:40:11 27° SSW visible
31 Mar 2.2 21:26:58 10° WSW 21:30:20 25° SSW 21:30:20 25° SSW visible
01 Apr 2.4 21:16:36 10° WSW 21:19:49 22° SSW 21:20:29 21° S visible
